When you browse on this site, cookies collect data to enhance your experience and personalize the content and advertising you see.
Visit our Privacy Policy to learn more. By continuing to use the site, you agree to this use of cookies and data.
  • In Romania
  • List of Countries
  • For 7 days
  • Water Temperature
  • Satellite Maps
  • Weather Map
  • Weather Widgets
  • user-avatar
    Login

    Hourly Weather Ordino

    Today, 18 January, Friday

    Time Temperature Precipitation Wind Pressure Humidity
    00:00 -5°C° 0 mm 2 mps 629 mmHg 89%
    01:00 -5°C° 0 mm 2 mps 629 mmHg 89%
    02:00 -6°C° 0 mm 2 mps 629 mmHg 88%
    03:00 -6°C° 0 mm 2 mps 629 mmHg 88%
    04:00 -6°C° 0 mm 2 mps 628 mmHg 87%
    05:00 -7°C° 0 mm 2 mps 628 mmHg 86%
    06:00 -7°C° 0 mm 2 mps 628 mmHg 85%
    07:00 -4°C° 0 mm 1 mps 628 mmHg 78%
    08:00 -3°C° 0 mm 1 mps 629 mmHg 72%
    09:00 -2°C° 0 mm 1 mps 629 mmHg 66%
    10:00 -1°C° 0 mm 1 mps 629 mmHg 60%
    11:00 0°C° 0 mm 1 mps 630 mmHg 53%
    12:00 +2°C° 0 mm 1 mps 630 mmHg 47%
    13:00 +1°C° 0 mm 1 mps 630 mmHg 49%
    14:00 +1°C° 0 mm 1 mps 629 mmHg 51%
    15:00 +1°C° 0 mm 1 mps 629 mmHg 53%
    16:00 0°C° 0 mm 1 mps 628 mmHg 59%
    17:00 -1°C° 0 mm 1 mps 628 mmHg 66%
    18:00 -3°C° 0 mm 0 mps 628 mmHg 73%
    19:00 -3°C° 0 mm 0 mps 628 mmHg 71%
    20:00 -3°C° 0 mm 0 mps 628 mmHg 69%
    21:00 -3°C° 0 mm 0 mps 628 mmHg 68%
    22:00 -4°C° 0 mm 0 mps 628 mmHg 67%
    23:00 -4°C° 0 mm 0 mps 627 mmHg 66%

    Tomorrow, 19 January, Saturday

    Time Temperature Precipitation Wind Pressure Humidity
    00:00 -3°C° 0 mm 1 mps 627 mmHg 65%
    01:00 -4°C° 0 mm 1 mps 627 mmHg 63%
    02:00 -4°C° 0 mm 1 mps 627 mmHg 62%
    03:00 -4°C° 0 mm 1 mps 626 mmHg 61%
    04:00 -3°C° 0 mm 1 mps 627 mmHg 63%
    05:00 -3°C° 0 mm 1 mps 627 mmHg 64%
    06:00 -2°C° 0 mm 1 mps 627 mmHg 66%
    07:00 -1°C° 0 mm 1 mps 627 mmHg 66%
    08:00 -1°C° 0 mm 0 mps 628 mmHg 67%
    09:00 0°C° 0 mm 0 mps 628 mmHg 67%
    10:00 +2°C° 0 mm 1 mps 628 mmHg 63%
    11:00 +3°C° 0 mm 1 mps 629 mmHg 58%
    12:00 +4°C° 0 mm 1 mps 629 mmHg 54%
    13:00 +3°C° 0 mm 2 mps 628 mmHg 55%
    14:00 +2°C° 0 mm 2 mps 627 mmHg 56%
    15:00 +2°C° 0 mm 2 mps 627 mmHg 56%
    16:00 +1°C° 0 mm 2 mps 626 mmHg 63%
    17:00 -2°C° 0 mm 2 mps 625 mmHg 70%
    18:00 -3°C° 0 mm 2 mps 625 mmHg 77%
    19:00 -3°C° 0.2 mm 2 mps 625 mmHg 80%
    20:00 -3°C° 0.2 mm 2 mps 624 mmHg 83%
    21:00 -3°C° 0.2 mm 2 mps 624 mmHg 87%
    22:00 -3°C° 0.2 mm 2 mps 624 mmHg 88%
    23:00 -1°C° 0.2 mm 1 mps 624 mmHg 90%

    Day after tomorrow, 20 January, Sunday

    Time Temperature Precipitation Wind Pressure Humidity
    00:00 -1°C° 0.2 mm 1 mps 624 mmHg 92%
    01:00 -1°C° 0 mm 1 mps 623 mmHg 91%
    02:00 -1°C° 0 mm 1 mps 623 mmHg 91%
    03:00 -1°C° 0 mm 1 mps 623 mmHg 90%
    04:00 -1°C° 0 mm 1 mps 623 mmHg 89%
    05:00 -3°C° 0 mm 2 mps 624 mmHg 88%
    06:00 -3°C° 0 mm 2 mps 624 mmHg 87%
    07:00 -3°C° 0 mm 2 mps 624 mmHg 84%
    08:00 -2°C° 0 mm 2 mps 625 mmHg 82%
    09:00 -2°C° 0 mm 2 mps 626 mmHg 79%
    10:00 -1°C° 0 mm 3 mps 626 mmHg 76%
    11:00 0°C° 0 mm 3 mps 626 mmHg 73%
    12:00 0°C° 0 mm 3 mps 627 mmHg 71%
    13:00 0°C° 0.1 mm 3 mps 627 mmHg 71%
    14:00 0°C° 0.1 mm 3 mps 627 mmHg 72%
    15:00 0°C° 0.1 mm 3 mps 627 mmHg 73%
    16:00 -1°C° 0.1 mm 3 mps 627 mmHg 77%
    17:00 -2°C° 0.1 mm 3 mps 627 mmHg 82%
    18:00 -3°C° 0.1 mm 2 mps 627 mmHg 87%
    19:00 -4°C° 0.1 mm 2 mps 627 mmHg 86%
    20:00 -4°C° 0.1 mm 2 mps 628 mmHg 86%
    21:00 -4°C° 0.1 mm 2 mps 628 mmHg 85%
    22:00 -4°C° 0.1 mm 2 mps 628 mmHg 85%
    23:00 -4°C° 0.1 mm 2 mps 628 mmHg 85%

    21 January, Monday

    Time Temperature Precipitation Wind Pressure Humidity
    00:00 -4°C° 0.1 mm 2 mps 629 mmHg 85%
    01:00 -4°C° 0.1 mm 2 mps 629 mmHg 85%
    02:00 -4°C° 0.1 mm 2 mps 629 mmHg 85%
    03:00 -4°C° 0.1 mm 2 mps 629 mmHg 85%
    04:00 -4°C° 0.2 mm 2 mps 629 mmHg 86%
    05:00 -4°C° 0.2 mm 2 mps 629 mmHg 86%
    06:00 -5°C° 0.2 mm 3 mps 629 mmHg 87%
    07:00 -5°C° 0.2 mm 3 mps 630 mmHg 84%
    08:00 -4°C° 0.2 mm 3 mps 630 mmHg 82%
    09:00 -4°C° 0.2 mm 3 mps 631 mmHg 79%
    10:00 -2°C° 0.1 mm 3 mps 631 mmHg 76%
    11:00 -3°C° 0.1 mm 4 mps 631 mmHg 72%
    12:00 -2°C° 0.1 mm 4 mps 631 mmHg 69%
    13:00 -3°C° 0.1 mm 4 mps 631 mmHg 70%
    14:00 -3°C° 0.1 mm 4 mps 631 mmHg 71%
    15:00 -3°C° 0.1 mm 4 mps 631 mmHg 72%
    16:00 -5°C° 0.1 mm 4 mps 631 mmHg 76%
    17:00 -6°C° 0.1 mm 3 mps 631 mmHg 81%
    18:00 -7°C° 0.1 mm 3 mps 631 mmHg 85%
    19:00 -7°C° 0 mm 3 mps 631 mmHg 85%
    20:00 -8°C° 0 mm 3 mps 631 mmHg 86%
    21:00 -8°C° 0 mm 3 mps 631 mmHg 86%
    22:00 -9°C° 0 mm 3 mps 631 mmHg 84%
    23:00 -9°C° 0 mm 3 mps 631 mmHg 82%

    22 January, Tuesday

    Time Temperature Precipitation Wind Pressure Humidity
    00:00 -9°C° 0 mm 2 mps 631 mmHg 80%
    01:00 -9°C° 0 mm 2 mps 630 mmHg 74%
    02:00 -9°C° 0 mm 2 mps 630 mmHg 68%
    03:00 -9°C° 0 mm 2 mps 630 mmHg 62%
    04:00 -9°C° 0 mm 2 mps 629 mmHg 58%
    05:00 -9°C° 0 mm 2 mps 629 mmHg 54%
    06:00 -9°C° 0 mm 2 mps 629 mmHg 51%
    07:00 -8°C° 0 mm 2 mps 629 mmHg 50%
    08:00 -7°C° 0 mm 2 mps 629 mmHg 50%
    09:00 -5°C° 0 mm 2 mps 630 mmHg 50%
    10:00 -3°C° 0 mm 2 mps 630 mmHg 53%
    11:00 -2°C° 0 mm 2 mps 629 mmHg 56%
    12:00 +1°C° 0 mm 2 mps 629 mmHg 58%
    13:00 +1°C° 0.3 mm 2 mps 628 mmHg 64%
    14:00 +2°C° 0.3 mm 1 mps 627 mmHg 69%
    15:00 +1°C° 0.3 mm 1 mps 625 mmHg 74%
    16:00 +1°C° 1.1 mm 1 mps 625 mmHg 79%
    17:00 -2°C° 1.1 mm 2 mps 624 mmHg 84%
    18:00 -3°C° 1.1 mm 2 mps 623 mmHg 89%
    19:00 -3°C° 1.5 mm 2 mps 623 mmHg 89%
    20:00 -5°C° 1.5 mm 3 mps 623 mmHg 89%
    21:00 -5°C° 1.5 mm 3 mps 622 mmHg 89%
    22:00 -7°C° 1.5 mm 4 mps 622 mmHg 89%
    23:00 -8°C° 1.5 mm 4 mps 622 mmHg 90%

    23 January, Wednesday

    Time Temperature Precipitation Wind Pressure Humidity
    00:00 -8°C° 1.5 mm 4 mps 621 mmHg 91%
    01:00 -9°C° 1.1 mm 4 mps 621 mmHg 90%
    02:00 -8°C° 1.1 mm 3 mps 620 mmHg 89%
    03:00 -8°C° 1.1 mm 3 mps 620 mmHg 89%
    04:00 -8°C° 0.8 mm 3 mps 619 mmHg 89%
    05:00 -6°C° 0.8 mm 2 mps 619 mmHg 90%
    06:00 -6°C° 0.8 mm 2 mps 618 mmHg 90%
    07:00 -5°C° 1.9 mm 2 mps 617 mmHg 92%
    08:00 -5°C° 1.9 mm 2 mps 616 mmHg 94%
    09:00 -5°C° 1.9 mm 3 mps 616 mmHg 95%
    10:00 -4°C° 3.6 mm 3 mps 615 mmHg 95%
    11:00 -2°C° 3.6 mm 3 mps 614 mmHg 95%
    12:00 -1°C° 3.6 mm 3 mps 614 mmHg 96%
    13:00 -2°C° 3.3 mm 3 mps 613 mmHg 95%
    14:00 -2°C° 3.3 mm 2 mps 612 mmHg 95%
    15:00 -2°C° 3.3 mm 2 mps 611 mmHg 95%
    16:00 -2°C° 3.2 mm 2 mps 611 mmHg 95%
    17:00 -2°C° 3.2 mm 2 mps 610 mmHg 96%
    18:00 -2°C° 3.2 mm 2 mps 610 mmHg 96%
    19:00 -4°C° 2.6 mm 2 mps 610 mmHg 96%
    20:00 -6°C° 2.6 mm 2 mps 610 mmHg 95%
    21:00 -9°C° 2.6 mm 3 mps 609 mmHg 95%
    22:00 -9°C° 1.2 mm 3 mps 610 mmHg 95%
    23:00 -11°C° 1.2 mm 4 mps 610 mmHg 96%
    Show more